H1 CPF 2 NER 2024 5 1 9 122 01 glonass129 H2 1106402 9129 37868 2024 5 1 0 0 0 2024 5 4 23 45 0 900 1 1 0 0 0 1 H9 10 0 60431 0.00000 0 -9819724.404 4619811.051 -23038918.112 10 0 60431 900.00000 0 -11338923.011 2227148.443 -22698812.725 10 0 60431 1800.00000 0 -12988506.259 8831.287 -21915973.573 10 0 60431 2700.00000 0 -14717447.172 -1987576.253 -20705896.771 10 0 60431 3600.00000 0 -16468006.830 -3725081.554 -19092411.301 10 0 60431 4500.00000 0 -18178091.661 -5178551.648 -17107192.142 10 0 60431 5400.00000 0 -19783808.609 -6335493.597 -14789120.378 10 0 60431 6300.00000 0 -21222109.873 -7196297.399 -12183504.344 10 0 60431 7200.00000 0 -22433415.517 -7773934.596 -9341178.558 10 0 60431 8100.00000 0 -23364103.797 -8093128.798 -6317499.371 10 0 60431 9000.00000 0 -23968765.143 -8189036.451 -3171258.036 10 0 60431 9900.00000 0 -24212126.204 -8105496.484 36466.750 10 0 60431 10800.00000 0 -24070564.711 -7892925.084 3243494.029 10 0 60431 11700.00000 0 -23533153.397 -7605946.111 6387740.393 10 0 60431 12600.00000 0 -22602191.081 -7300858.041 9408411.467 10 0 60431 13500.00000 0 -21293200.458 -7033044.345 12247162.813 10 0 60431 14400.00000 0 -19634394.088 -6854435.842 14849209.034 10 0 60431 15300.00000 0 -17665631.800 -6811130.766 17164361.244 10 0 60431 16200.00000 0 -15436913.236 -6941271.178 19147974.741 10 0 60431 17100.00000 0 -13006467.769 -7273263.455 20761790.652 10 0 60431 18000.00000 0 -10438520.028 -7824416.258 21974657.239 10 0 60431 18900.00000 0 -7800821.922 -8600052.230 22763118.767 10 0 60431 19800.00000 0 -5162051.169 -9593130.504 23111861.975 10 0 60431 20700.00000 0 -2589181.561 -10784396.423 23014012.378 10 0 60431 21600.00000 0 -144931.272 -12143053.656 22471274.946 10 0 60431 22500.00000 0 2114607.484 -13627932.782 21493915.966 10 0 60431 23400.00000 0 4142061.087 -15189110.193 20100585.317 10 0 60431 24300.00000 0 5900503.947 -16769912.613 18317980.879 10 0 60431 25200.00000 0 7364753.479 -18309226.343 16180359.331 10 0 60431 26100.00000 0 8522176.599 -19744017.180 13728900.425 10 0 60431 27000.00000 0 9372973.360 -21011957.373 11010934.517 10 0 60431 27900.00000 0 9929924.735 -22054050.557 8079046.031 10 0 60431 28800.00000 0 10217613.698 -22817144.535 4990068.347 10 0 60431 29700.00000 0 10271151.009 -23256225.397 1803988.314 10 0 60431 30600.00000 0 10134458.297 -23336394.617 -1417218.994 10 0 60431 31500.00000 0 9858180.350 -23034443.382 -4610802.502 10 0 60431 32400.00000 0 9497314.948 -22339954.881 -7714469.930 10 0 60431 33300.00000 0 9108661.394 -21255885.018 -10667619.720 10 0 60431 34200.00000 0 8748197.333 -19798594.308 -13412544.178 10 0 60431 35100.00000 0 8468497.090 -17997327.205 -15895578.240 10 0 60431 36000.00000 0 8316303.413 -15893159.158 -18068169.262 10 0 60431 36900.00000 0 8330358.092 -13537454.820 -19887844.886 10 0 60431 37800.00000 0 8539585.744 -10989902.073 -21319058.334 10 0 60431 38700.00000 0 8961709.773 -8316204.978 -22333893.335 10 0 60431 39600.00000 0 9602360.542 -5585533.409 -22912614.078 10 0 60431 40500.00000 0 10454714.351 -2867837.445 -23044049.196 10 0 60431 41400.00000 0 11499678.678 -231140.112 -22725802.496 10 0 60431 42300.00000 0 12706615.399 2261077.416 -21964286.988 10 0 60431 43200.00000 0 14034570.558 4552288.479 -20774582.600 10 0 60431 44100.00000 0 15433957.467 6595030.975 -19180121.652 10 0 60431 45000.00000 0 16848620.732 8352627.645 -17212209.752 10 0 60431 45900.00000 0 18218192.711 9800446.557 -14909393.042 10 0 60431 46800.00000 0 19480641.915 10926651.628 -12316685.755 10 0 60431 47700.00000 0 20574905.060 11732414.846 -9484674.689 10 0 60431 48600.00000 0 21443491.539 12231584.778 -6468519.447 10 0 60431 49500.00000 0 22034950.787 12449828.833 -3326869.084 10 0 60431 50400.00000 0 22306099.350 12423288.649 -120717.138 10 0 60431 51300.00000 0 22223915.160 12196808.142 3087782.175 10 0 60431 52200.00000 0 21767020.853 11821811.005 6236513.509 10 0 60431 53100.00000 0 20926695.550 11353918.581 9264592.741 10 0 60431 54000.00000 0 19707374.268 10850409.010 12113529.815 10 0 60431 54900.00000 0 18126615.477 10367624.461 14728340.838 10 0 60431 55800.00000 0 16214539.062 9958434.670 17058589.484 10 0 60431 56700.00000 0 14012758.543 9669862.030 19059339.480 10 0 60431 57600.00000 0 11572851.639 9540966.366 20692001.829 10 0 60431 58500.00000 0 8954431.742 9601076.540 21925062.344 10 0 60431 59400.00000 0 6222898.613 9868441.679 22734677.305 10 0 60431 60300.00000 0 3446959.269 10349357.736 23105127.129 10 0 60431 61200.00000 0 696019.144 11037805.849 23029120.204 10 0 60431 62100.00000 0 -1962451.247 11915618.311 22507941.286 10 0 60431 63000.00000 0 -4465467.757 12953166.719 21551441.190 10 0 60431 63900.00000 0 -6756898.737 14110545.623 20177866.842 10 0 60431 64800.00000 0 -8789549.442 15339204.792 18413533.315 10 0 60431 65700.00000 0 -10526879.226 16583964.483 16292341.998 10 0 60431 66600.00000 0 -11944280.288 17785331.931 13855151.797 10 0 60431 67500.00000 0 -13029864.287 18882024.058 11149013.061 10 0 60431 68400.00000 0 -13784722.931 19813591.926 8226276.721 10 0 60431 69300.00000 0 -14222650.243 20523037.153 5143594.058 10 0 60431 70200.00000 0 -14369336.692 20959309.711 1960825.106 10 0 60431 71100.00000 0 -14261067.740 21079580.473 -1260123.759 10 0 60431 72000.00000 0 -13942980.741 20851190.436 -4456510.333 10 0 60431 72900.00000 0 -13466953.434 20253191.554 -7565990.915 10 0 60431 73800.00000 0 -12889213.650 19277411.050 -10527852.981 10 0 60431 74700.00000 0 -12267772.464 17928991.159 -13284220.338 10 0 60431 75600.00000 0 -11659791.125 16226378.760 -15781205.105 10 0 60431 76500.00000 0 -11118995.463 14200763.084 -17969981.901 10 0 60431 77400.00000 0 -10693249.597 11894983.642 -19807761.155 10 0 60431 78300.00000 0 -10422394.028 9361953.559 -21258640.815 10 0 60431 79200.00000 0 -10336441.663 6662664.487 -22294318.477 10 0 60431 80100.00000 0 -10454209.633 3863857.414 -22894649.179 10 0 60431 81000.00000 0 -10782445.710 1035457.895 -23048037.659 10 0 60431 81900.00000 0 -11315486.455 -1752115.840 -22751657.631 10 0 60431 82800.00000 0 -12035461.124 -4430658.300 -22011494.430 10 0 60431 83700.00000 0 -12913031.664 -6936781.996 -20842211.227 10 0 60431 84600.00000 0 -13908636.117 -9214313.624 -19266842.730 10 0 60431 85500.00000 0 -14974181.188 -11216381.658 -17316323.863 10 0 60432 0.00000 0 -16055110.690 -12907109.341 -15028864.422 10 0 60432 900.00000 0 -17092761.476 -14262845.241 -12449182.231 10 0 60432 1800.00000 0 -18026904.699 -15272880.401 -9627614.455 10 0 60432 2700.00000 0 -18798366.214 -15939628.270 -6619121.697 10 0 60432 3600.00000 0 -19351613.809 -16278260.955 -3482208.432 10 0 60432 4500.00000 0 -19637202.990 -16315821.469 -277780.555 10 0 60432 5400.00000 0 -19613978.904 -16089852.239 2932037.031 10 0 60432 6300.00000 0 -19250942.842 -15646600.164 6085099.707 10 0 60432 7200.00000 0 -18528706.297 -15038875.635 9120436.333 10 0 60432 8100.00000 0 -17440472.969 -14323656.682 11979414.002 10 0 60432 9000.00000 0 -15992508.930 -13559539.250 14606853.063 10 0 60432 9900.00000 0 -14204082.258 -12804140.225 16952072.381 10 0 60432 10800.00000 0 -12106875.163 -12111561.125 18969846.562 10 0 60432 11700.00000 0 -9743892.897 -11530017.241 20621258.657 10 0 60432 12600.00000 0 -7167913.996 -11099729.839 21874433.878 10 0 60432 13500.00000 0 -4439544.599 -10851168.010 22705141.981 10 0 60432 14400.00000 0 -1624955.335 -10803712.412 23097258.128 10 0 60432 15300.00000 0 1206608.087 -10964796.015 23043074.246 10 0 60432 16200.00000 0 3985440.392 -11329557.772 22543455.179 10 0 60432 17100.00000 0 6644012.939 -11881024.396 21607836.206 10 0 60432 18000.00000 0 9119523.992 -12590814.143 20254060.915 10 0 60432 18900.00000 0 11356259.420 -13420335.183 18508060.879 10 0 60432 19800.00000 0 13307667.266 -14322430.802 16403381.179 10 0 60432 20700.00000 0 14938060.511 -15243404.929 13980558.532 10 0 60432 21600.00000 0 16223876.997 -16125345.206 11286361.580 10 0 60432 22500.00000 0 17154443.065 -16908647.685 8372905.722 10 0 60432 23400.00000 0 17732207.603 -17534637.823 5296657.739 10 0 60432 24300.00000 0 17972435.135 -17948177.352 2117348.158 10 0 60432 25200.00000 0 17902369.227 -18100146.130 -1103188.257 10 0 60432 26100.00000 0 17559900.151 -17949692.332 -4302221.241 10 0 60432 27000.00000 0 16991792.163 -17466153.358 -7417358.771 10 0 60432 27900.00000 0 16251545.104 -16630563.254 -10387780.427 10 0 60432 28800.00000 0 15396981.272 -15436679.714 -13155444.466 10 0 60432 29700.00000 0 14487660.866 -13891484.217 -15666242.977 10 0 60432 30600.00000 0 13582237.117 -12015131.460 -17871080.405 10 0 60432 31500.00000 0 12735865.131 -9840348.149 -19726852.271 10 0 60432 32400.00000 0 11997776.261 -7411305.103 -21197303.253 10 0 60432 33300.00000 0 11409122.584 -4782009.460 -22253746.470 10 0 60432 34200.00000 0 11001184.238 -2014284.599 -22875629.092 10 0 60432 35100.00000 0 10794016.354 824576.927 -23050932.868 10 0 60432 36000.00000 0 10795593.069 3664388.242 -22776401.948 10 0 60432 36900.00000 0 11001484.343 6434762.057 -22057594.153 10 0 60432 37800.00000 0 11395078.154 9067810.185 -20908755.730 10 0 60432 38700.00000 0 11948337.064 11500735.487 -19352523.291 10 0 60432 39600.00000 0 12623055.241 13678208.067 -17419460.291 10 0 60432 40500.00000 0 13372560.699 15554427.256 -15147438.637 10 0 60432 41400.00000 0 14143788.812 17094784.783 -12580879.153 10 0 60432 42300.00000 0 14879637.676 18277061.757 -9769867.237 10 0 60432 43200.00000 0 15521504.435 19092112.148 -6769162.396 10 0 60432 44100.00000 0 16011894.587 19544007.314 -3637122.116 10 0 60432 45000.00000 0 16296993.835 19649638.825 -434561.961 10 0 60432 45900.00000 0 16329094.242 19437799.465 2776425.373 10 0 60432 46800.00000 0 16068773.216 18947783.829 5933669.022 10 0 60432 47700.00000 0 15486734.738 18227569.596 8976113.893 10 0 60432 48600.00000 0 14565236.707 17331657.360 11844987.270 10 0 60432 49500.00000 0 13299045.833 16318660.424 14484916.688 10 0 60432 50400.00000 0 11695881.095 15248745.585 16844979.020 10 0 60432 51300.00000 0 9776327.853 14181031.331 18879662.380 10 0 60432 52200.00000 0 7573226.199 13171051.020 20549724.299 10 0 60432 53100.00000 0 5130558.362 12268385.392 21822931.560 10 0 60432 54000.00000 0 2501880.013 11514561.546 22674669.272 10 0 60432 54900.00000 0 -251641.496 10941304.414 23088408.864 10 0 60432 55800.00000 0 -3063503.181 10569212.480 23056026.916 10 0 60432 56700.00000 0 -5864365.405 10406912.296 22577968.985 10 0 60432 57600.00000 0 -8584673.325 10450727.146 21663254.924 10 0 60432 58500.00000 0 -11157294.988 10684874.429 20329324.531 10 0 60432 59400.00000 0 -13520069.163 11082184.945 18601724.867 10 0 60432 60300.00000 0 -15618158.914 11605315.887 16513643.160 10 0 60432 61200.00000 0 -17406114.081 12208408.880 14105291.919 10 0 60432 62100.00000 0 -18849556.936 12839125.600 11423155.680 10 0 60432 63000.00000 0 -19926420.091 13440977.242 8519111.611 10 0 60432 63900.00000 0 -20627683.607 13955850.940 5449439.110 10 0 60432 64800.00000 0 -20957578.766 14326627.063 2273736.186 10 0 60432 65700.00000 0 -20933248.143 14499776.381 -946237.070 10 0 60432 66600.00000 0 -20583874.561 14427825.953 -4147765.407 10 0 60432 67500.00000 0 -19949314.381 14071587.233 -7268411.537 10 0 60432 68400.00000 0 -19078292.048 13402049.324 -10247250.127 10 0 60432 69300.00000 0 -18026232.162 12401854.109 -13026076.752 10 0 60432 70200.00000 0 -16852821.385 11066287.656 -15550566.145 10 0 60432 71100.00000 0 -15619404.576 9403743.025 -17771354.993 10 0 60432 72000.00000 0 -14386326.996 7435632.400 -19645026.008 10 0 60432 72900.00000 0 -13210336.903 5195750.385 -21134972.310 10 0 60432 73800.00000 0 -12142160.199 2729114.112 -22212123.866 10 0 60432 74700.00000 0 -11224351.193 90328.501 -22855520.888 10 0 60432 75600.00000 0 -10489511.308 -2658454.508 -23052722.634 10 0 60432 76500.00000 0 -9958951.330 -5449896.563 -22800043.787 10 0 60432 77400.00000 0 -9641853.323 -8214053.565 -22102614.372 10 0 60432 78300.00000 0 -9534966.516 -10881067.527 -20974263.058 10 0 60432 79200.00000 0 -9622848.300 -13383856.425 -19437227.376 10 0 60432 80100.00000 0 -9878637.979 -15660689.297 -17521698.010 10 0 60432 81000.00000 0 -10265328.189 -17657539.323 -15265207.663 10 0 60432 81900.00000 0 -10737477.761 -19330117.495 -12711878.003 10 0 60432 82800.00000 0 -11243291.364 -20645503.461 -9911540.965 10 0 60432 83700.00000 0 -11726976.079 -21583307.579 -6918752.976 10 0 60432 84600.00000 0 -12131273.862 -22136318.307 -3791722.481 10 0 60432 85500.00000 0 -12400062.070 -22310610.800 -591172.594 10 0 60433 0.00000 0 -12480911.992 -22125115.318 2620838.106 10 0 60433 900.00000 0 -12327497.794 -21610666.314 5782115.363 10 0 60433 1800.00000 0 -11901755.072 -20808574.853 8831522.230 10 0 60433 2700.00000 0 -11175699.465 -19768785.801 11710148.642 10 0 60433 3600.00000 0 -10132829.957 -18547698.279 14362431.837 10 0 60433 4500.00000 0 -8769059.187 -17205740.945 16737209.198 10 0 60433 5400.00000 0 -7093132.599 -15804803.085 18788684.778 10 0 60433 6300.00000 0 -5126519.165 -14405627.733 20477292.850 10 0 60433 7200.00000 0 -2902777.824 -13065274.044 21770443.808 10 0 60433 8100.00000 0 -466424.903 -11834752.855 22643139.867 10 0 60433 9000.00000 0 2128652.301 -10756932.067 23078450.151 10 0 60433 9900.00000 0 4821172.338 -9864797.452 23067836.969 10 0 60433 10800.00000 0 7544747.751 -9180140.091 22611327.328 10 0 60433 11700.00000 0 10230392.815 -8712724.515 21717526.045 10 0 60433 12600.00000 0 12809149.904 -8459972.359 20403469.171 10 0 60433 13500.00000 0 15214728.256 -8407175.455 18694318.970 10 0 60433 14400.00000 0 17386047.719 -8528230.856 16622904.174 10 0 60433 15300.00000 0 19269583.044 -8786868.759 14229112.082 10 0 60433 16200.00000 0 20821411.624 -9138323.737 11559141.720 10 0 60433 17100.00000 0 22008878.893 -9531380.860 8664630.216 10 0 60433 18000.00000 0 22811810.640 -9910711.905 5601667.355 10 0 60433 18900.00000 0 23223219.793 -10219403.918 2429716.025 10 0 60433 19800.00000 0 23249476.032 -10401573.246 -789541.288 10 0 60433 20700.00000 0 22909929.095 -10404953.564 -3993407.501 10 0 60433 21600.00000 0 22235999.876 -10183346.588 -7119403.324 10 0 60433 22500.00000 0 21269776.401 -9698829.225 -10106501.771 10 0 60433 23400.00000 0 20062173.321 -8923620.708 -12896338.889 10 0 60433 24300.00000 0 18670732.739 -7841527.487 -15434375.029 10 0 60433 25200.00000 0 17157160.060 -6448901.592 -17670981.854 10 0 60433 26100.00000 0 15584700.291 -4755069.174 -19562431.730 10 0 60433 27000.00000 0 14015467.264 -2782208.847 -21071768.391 10 0 60433 27900.00000 0 12507840.292 -564683.341 -22169540.497 10 0 60433 28800.00000 0 11114039.712 1852148.253 -22834382.808 10 0 60433 29700.00000 0 9877984.741 4413587.939 -23053433.240 10 0 60433 30600.00000 0 8833524.506 7057656.046 -22822577.784 10 0 60433 31500.00000 0 8003116.661 9717461.210 -22146519.076 10 0 60433 32400.00000 0 7397008.325 12323782.917 -21038668.244 10 0 60433 33300.00000 0 7012952.207 14807757.698 -19520863.412 10 0 60433 34200.00000 0 6836467.651 17103555.944 -17622921.837 10 0 60433 35100.00000 0 6841632.913 19150937.262 -15382035.992 10 0 60433 36000.00000 0 6992372.392 20897577.929 -12842027.020 10 0 60433 36900.00000 0 7244181.695 22301074.107 -10052471.678 10 0 60433 37800.00000 0 7546215.119 23330538.689 -7067721.257 10 0 60433 38700.00000 0 7843645.313 23967727.197 -3945832.769 10 0 60433 39600.00000 0 8080193.954 24207648.171 -747434.227 10 0 60433 40500.00000 0 8200725.729 24058635.358 2465453.364 10 0 60433 41400.00000 0 8153795.958 23541881.497 5630614.218 10 0 60433 42300.00000 0 7894044.851 22690455.755 8686833.182 10 0 60433 43200.00000 0 7384338.386 21547848.057 11575065.913 10 0 60433 44100.00000 0 6597566.886 20166102.616 14239562.348 10 0 60433 45000.00000 0 5518026.897 18603619.374 16628923.262 10 0 60433 45900.00000 0 4142329.399 16922715.065 18697071.367 10 0 60433 46800.00000 0 2479796.865 15187044.775 20404120.211 10 0 60433 47700.00000 0 552332.514 13458990.015 21717126.102 10 0 60433 48600.00000 0 -1606233.549 11797120.209 22610710.382 10 0 60433 49500.00000 0 -3951295.659 10253831.104 23067541.560 10 0 60433 50400.00000 0 -6429075.662 8873256.404 23078668.964 10 0 60433 51300.00000 0 -8978613.959 7689537.742 22643701.877 10 0 60433 52200.00000 0 -11534068.931 6725523.811 21770830.380 10 0 60433 53100.00000 0 -14027232.457 5991952.277 20476686.522 10 0 60433 54000.00000 0 -16390159.998 5487148.718 18786046.917 10 0 60433 54900.00000 0 -18557808.460 5197255.939 16731380.392 10 0 60433 55800.00000 0 -20470573.752 5096985.408 14352247.087 10 0 60433 56700.00000 0 -22076623.261 5150860.927 11694558.126 10 0 60433 57600.00000 0 -23333925.857 5314904.014 8809707.843 10 0 60433 58500.00000 0 -24211893.651 5538691.517 5753593.413 10 0 60433 59400.00000 0 -24692565.157 5767699.710 2585539.437 10 0 60433 60300.00000 0 -24771278.131 5945836.186 -632852.443 10 0 60433 61200.00000 0 -24456801.543 6018051.948 -3838906.564 10 0 60433 62100.00000 0 -23770918.970 5932921.801 -6970104.867 10 0 60433 63000.00000 0 -22747479.153 5645081.622 -9965321.874 10 0 60433 63900.00000 0 -21430952.595 5117416.555 -12766037.145 10 0 60433 64800.00000 0 -19874554.550 4322904.364 -15317499.510 10 0 60433 65700.00000 0 -18138013.884 3246032.781 -17569818.210 10 0 60433 66600.00000 0 -16285082.792 1883727.905 -19478957.506 10 0 60433 67500.00000 0 -14380893.768 245751.891 -21007613.564 10 0 60433 68400.00000 0 -12489276.824 -1645448.804 -22125955.066 10 0 60433 69300.00000 0 -10670151.571 -3755439.479 -22812212.127 10 0 60433 70200.00000 0 -8977105.248 -6039008.800 -23053101.603 10 0 60433 71100.00000 0 -7455259.397 -8441844.997 -22844080.585 10 0 60433 72000.00000 0 -6139515.040 -10902605.631 -22189423.650 10 0 60433 72900.00000 0 -5053249.474 -13355293.292 -21102123.320 10 0 60433 73800.00000 0 -4207518.059 -15731836.659 -19603616.914 10 0 60433 74700.00000 0 -3600792.414 -17964767.938 -17723346.575 10 0 60433 75600.00000 0 -3219243.327 -19989884.017 -15498162.679 10 0 60433 76500.00000 0 -3037553.415 -21748779.849 -12971583.835 10 0 60433 77400.00000 0 -3020222.090 -23191148.490 -10192929.553 10 0 60433 78300.00000 0 -3123304.794 -24276752.540 -7216343.896 10 0 60433 79200.00000 0 -3296510.425 -24976986.172 -4099730.376 10 0 60433 80100.00000 0 -3485566.289 -25275964.402 -903619.859 10 0 60433 81000.00000 0 -3634749.318 -25171096.500 2310005.948 10 0 60433 81900.00000 0 -3689475.950 -24673122.072 5478912.325 10 0 60433 82800.00000 0 -3598841.390 -23805610.791 8541807.661 10 0 60433 83700.00000 0 -3318001.770 -22603948.826 11439515.394 10 0 60433 84600.00000 0 -2810299.860 -21113855.934 14116100.237 10 0 60433 85500.00000 0 -2049046.146 -19389496.084 16519928.421 10 0 60434 0.00000 0 -1018881.722 -17491260.729 18604643.150 10 0 60434 900.00000 0 283333.877 -15483315.479 20330039.512 10 0 60434 1800.00000 0 1848145.294 -13431013.554 21662821.240 10 0 60434 2700.00000 0 3653652.306 -11398278.378 22577230.292 10 0 60434 3600.00000 0 5666182.653 -9445064.414 23055535.796 10 0 60434 4500.00000 0 7841461.002 -7624998.515 23088375.057 10 0 60434 5400.00000 0 10126227.824 -5983297.832 22674940.304 10 0 60434 6300.00000 0 12460243.837 -4555049.109 21823007.270 10 0 60434 7200.00000 0 14778599.801 -3363919.827 20548804.109 10 0 60434 8100.00000 0 17014238.731 -2421354.410 18876721.608 10 0 60434 9000.00000 0 19100588.322 -1726289.228 16838868.221 10 0 60434 9900.00000 0 20974196.016 -1265399.198 14474476.153 10 0 60434 10800.00000 0 22577258.131 -1013866.911 11829167.516 10 0 60434 11700.00000 0 23859937.781 -936643.551 8954092.375 10 0 60434 12600.00000 0 24782373.992 -990150.060 5904953.440 10 0 60434 13500.00000 0 25316296.472 -1124348.016 2740934.804 10 0 60434 14400.00000 0 25446176.176 -1285093.447 -476445.290 10 0 60434 15300.00000 0 25169860.898 -1416673.951 -3684535.423 10 0 60434 16200.00000 0 24498666.670 -1464420.843 -6820781.755 10 0 60434 17100.00000 0 23456918.829 -1377284.015 -9823963.371 10 0 60434 18000.00000 0 22080960.346 -1110258.032 -12635406.358 10 0 60434 18900.00000 0 20417668.069 -626553.868 -15200150.908 10 0 60434 19800.00000 0 18522539.057 100578.766 -17468046.537 10 0 60434 20700.00000 0 16457428.002 1086458.604 -19394751.882 10 0 60434 21600.00000 0 14288031.973 2334071.147 -20942617.787 10 0 60434 22500.00000 0 12081229.688 3833698.359 -22081434.948 10 0 60434 23400.00000 0 9902388.755 5563096.941 -22789030.562 10 0 60434 24300.00000 0 7812755.418 7488218.474 -23051701.854 10 0 60434 25200.00000 0 5867037.461 9564441.319 -22864478.108 10 0 60434 26100.00000 0 4111282.174 11738262.041 -22231206.571 10 0 60434 27000.00000 0 2581138.124 13949374.478 -21164461.496 10 0 60434 27900.00000 0 1300572.566 16133048.149 -19685279.315 10 0 60434 28800.00000 0 281096.463 18222705.129 -17822726.576 10 0 60434 29700.00000 0 -478472.940 20152586.424 -15613310.656 10 0 60434 30600.00000 0 -991705.052 21860395.591 -13100246.345 10 0 60434 31500.00000 0 -1283720.677 23289808.664 -10332594.233 10 0 60434 32400.00000 0 -1389867.084 24392745.758 -7364289.143 10 0 60434 33300.00000 0 -1353962.386 25131310.227 -4253078.767 10 0 60434 34200.00000 0 -1226185.950 25479315.716 -1059394.235 10 0 60434 35100.00000 0 -1060705.865 25423339.162 2154824.834 10 0 60434 36000.00000 0 -913144.893 24963257.873 5327327.717 10 0 60434 36900.00000 0 -837992.339 24112250.497 8396749.343 10 0 60434 37800.00000 0 -886070.786 22896263.878 11303783.941 10 0 60434 38700.00000 0 -1102163.690 21352969.755 13992313.967 10 0 60434 39600.00000 0 -1522902.522 19530255.919 16410473.987 10 0 60434 40500.00000 0 -2175000.999 17484315.075 18511630.797 10 0 60434 41400.00000 0 -3073909.371 15277410.584 20255262.879 10 0 60434 42300.00000 0 -4222944.380 12975410.899 21607724.196 10 0 60434 43200.00000 0 -5612931.098 10645193.368 22542879.505 10 0 60434 44100.00000 0 -7222372.167 8352023.000 23042600.419 10 0 60434 45000.00000 0 -9018138.674 6157012.564 23097113.735 10 0 60434 45900.00000 0 -10956655.901 4114767.038 22705195.702 10 0 60434 46800.00000 0 -12985537.224 2271308.061 21874208.284 10 0 60434 47700.00000 0 -15045601.091 662363.014 20619975.759 10 0 60434 48600.00000 0 -17073190.190 -687911.121 18966502.525 10 0 60434 49500.00000 0 -19002699.090 -1767716.254 16945535.506 10 0 60434 50400.00000 0 -20769207.318 -2577880.739 14595977.251 10 0 60434 51300.00000 0 -22311109.616 -3131593.853 11963158.625 10 0 60434 52200.00000 0 -23572634.196 -3453617.037 9097982.767 10 0 60434 53100.00000 0 -24506143.332 -3579003.570 6055954.921 10 0 60434 54000.00000 0 -25074118.691 -3551379.321 2896115.435 10 0 60434 54900.00000 0 -25250746.150 -3420856.182 -320104.241 10 0 60434 55800.00000 0 -25023030.975 -3241666.073 -3530080.400 10 0 60434 56700.00000 0 -24391393.746 -3069616.076 -6671226.915 10 0 60434 57600.00000 0 -23369719.258 -2959473.658 -9682230.888 10 0 60434 58500.00000 0 -21984854.014 -2962394.760 -12504268.293 10 0 60434 59400.00000 0 -20275571.777 -3123506.175 -15082173.889 10 0 60434 60300.00000 0 -18291049.699 -3479747.508 -17365540.403 10 0 60434 61200.00000 0 -16088918.970 -4058066.985 -19309723.436 10 0 60434 62100.00000 0 -13732972.451 -4874050.181 -20876730.613 10 0 60434 63000.00000 0 -11290626.634 -5931041.944 -22035976.196 10 0 60434 63900.00000 0 -8830245.879 -7219800.334 -22764885.382 10 0 60434 64800.00000 0 -6418442.581 -8718698.200 -23049336.046 10 0 60434 65700.00000 0 -4117467.640 -10394464.302 -22883929.321 10 0 60434 66600.00000 0 -1982801.351 -12203432.461 -22272084.214 10 0 60434 67500.00000 0 -61045.687 -14093245.418 -21225955.298 10 0 60434 68400.00000 0 1611794.411 -16004940.656 -19766176.314 10 0 60434 69300.00000 0 3011570.201 -17875329.292 -17921436.086 10 0 60434 70200.00000 0 4126738.243 -19639566.894 -15727896.629 10 0 60434 71100.00000 0 4958570.913 -21233807.404 -13228466.408 10 0 60434 72000.00000 0 5520822.783 -22597828.150 -10471944.508 10 0 60434 72900.00000 0 5838870.428 -23677515.797 -7512053.906 10 0 60434 73800.00000 0 5948365.301 -24427109.435 -4406383.916 10 0 60434 74700.00000 0 5893459.521 -24811107.784 -1215263.443 10 0 60434 75600.00000 0 5724681.943 -24805762.084 1999412.361 10 0 60434 76500.00000 0 5496555.899 -24400093.949 5175379.022 10 0 60434 77400.00000 0 5265060.152 -23596397.577 8251200.143 10 0 60434 78300.00000 0 5085040.370 -22410207.196 11167442.734 10 0 60434 79200.00000 0 5007679.754 -20869732.762 13867808.838 10 0 60434 80100.00000 0 5078134.289 -19014788.594 16300203.037 10 0 60434 81000.00000 0 5333430.782 -16895260.111 18417717.051 10 0 60434 81900.00000 0 5800714.564 -14569172.260 20179514.412 10 0 60434 82800.00000 0 6495919.189 -12100438.976 21551600.175 10 0 60434 83700.00000 0 7422913.120 -9556385.497 22507462.689 10 0 60434 84600.00000 0 8573159.026 -7005144.102 23028576.605 10 0 60434 85500.00000 0 9925900.607 -4513028.815 23104758.494 99